User: anonymous   Login
Location: Unspecified
(0.0000°N, 0.0000°E)
Time: 01:50:20
(UTC+00:00)
Language:

IGS 7A - Orbit

View from above orbital plane
View from above orbital plane
View from above satellite
View from above satellite

Ground track
Ground track

The orbit data is extracted from the following two-line orbital elements,

1 37954U 11075A   17177.89791445 0.00000000  00000-0  00000-0 0    05
2 37954  97.4423 253.3839 0003147 270.2558  89.7441 15.17643038    07
Epoch (UTC): 26 June 2017 21:32:59
Eccentricity: 0.0003147
inclination: 97.4423°
perigee height: 511 km
apogee height: 515 km
right ascension of ascending node: 253.3839°
argument of perigee: 270.2558°
revolutions per day: 15.17643038
mean anomaly at epoch: 89.7441°
orbit number at epoch: 0

The dashed part of the orbit path shows where the satellite is in the earth's shadow,  

DLR